User: anonymous   Login
Location: Unspecified
(0.0000°N, 0.0000°E)
Time: 06:59:15
(UTC+00:00)
Language:

COSMOS 2468 - Orbit

View from above orbital plane
View from above orbital plane
View from above satellite
View from above satellite

Ground track
Ground track

The orbit data is extracted from the following two-line orbital elements,

1 37154U 10043C   17202.80415754 +.00000028 +00000-0 +12970-3 0  9996
2 37154 082.4630 298.4035 0014569 197.3965 162.6619 12.43634627311656
Epoch (UTC): 21 July 2017 19:17:59
Eccentricity: 0.0014569
inclination: 82.4630°
perigee height: 1480 km
apogee height: 1502 km
right ascension of ascending node: 298.4035°
argument of perigee: 197.3965°
revolutions per day: 12.43634627
mean anomaly at epoch: 162.6619°
orbit number at epoch: 31165

The dashed part of the orbit path shows where the satellite is in the earth's shadow,  

DLR